Regional Weather Roundup
Issued by NWS

Home | Current Version | Previous Version | Graphics & Text | Print | Product List | Glossary On
Versions: 1 2 3 4 5 6 7 8 9 10 11 12 13 14 15 16 17 18 19 20 21 22 23 24 25 26 27 28 29 30 31 32 33 34 35 36 37 38 39 40 41 42 43 44 45 46 47 48 49 50
000
ASUS45 KBOU 210007
RWRCO

WEATHER ROUNDUP FOR COLORADO
NATIONAL WEATHER SERVICE DENVER/BOULDER CO
600 PM MDT MON OCT 20 2014

NOTE: "FAIR" INDICATES FEW OR NO CLOUDS BELOW 12000 FEET WITH NO
SIGNIFICANT WEATHER AND/OR OBSTRUCTIONS TO VISIBILITY.

COZ001>005-013-030-031-210100-
...NORTHWEST COLORADO...

CITY           SKY/WX    TMP DP  RH WIND       PRES   REMARKS
CRAIG          MOCLDY    61  39  44 S3        30.11F
HAYDEN         PTCLDY    63  34  34 CALM      30.13S
MEEKER         CLEAR     65  39  38 NW3       30.11F
MOUNT WERNER   NOT AVBL
STEAMBOAT SPGS PTCLDY    60  36  40 CALM      30.15S
WALDEN         PTCLDY    54  32  43 SE3       30.21S
$$

COZ006>008-011-210100-
...WEST CENTRAL VALLEYS...

CITY           SKY/WX    TMP DP  RH WIND       PRES   REMARKS
GRAND JUNCTION CLEAR     69  39  33 W7        30.03F
MONTROSE       PTCLDY    67  36  31 S9        30.11S
EAGLE          PTCLDY    66  36  32 CALM      30.14F
RIFLE          CLEAR     68  37  32 S6        30.07F
DELTA          MOCLDY    73  38  27 SW9       30.06S
NUCLA          PTCLDY    63  37  39 W6        30.16R
$$

COZ017>023-064>068-210100-
...SOUTHWEST COLORADO...

CITY           SKY/WX    TMP DP  RH WIND       PRES   REMARKS
DURANGO        MOCLDY    60  39  45 CALM      30.17S
CORTEZ         MOCLDY    66  38  35 SE9       30.11F
PAGOSA SPRINGS CLOUDY    57  40  51 CALM      30.24S
TELLURIDE      PTCLDY    53  34  49 SW5       30.30S
WOLF CREEK PAS CLOUDY    37  30  75 SE3       30.46S
$$

COZ009-010-012-014-032>034-037-058>063-210100-
...CENTRAL COLORADO...

CITY           SKY/WX    TMP DP  RH WIND       PRES   REMARKS
ASPEN          PTCLDY    58  34  40 CALM      30.19S
BUENA VISTA    MOCLDY    55  34  44 S5        30.23S
COPPER MTN     MOCLDY    43  32  65 NE3       30.45F
BERTHOUD PASS  LGT SNOW  32  30  93 W14G22    30.49S WCI  22
COTTONWOOD PAS PTCLDY    54  27  35 SE5       30.33F
GUNNISON       MOCLDY    59  30  33 SE13      30.22S
KREMMLING      PTCLDY    61  28  29 SW3         N/A
LEADVILLE      MOCLDY    51  29  42 S12       30.31S
MONARCH PASS   CLOUDY    37  30  75 SW12      30.56S
SALIDA         CLOUDY    60  37  43 W8        30.29R
SUNLIGHT       PTCLDY    46  34  61 CALM      30.39S
WILKERSON PASS NOT AVBL
$$

COZ069>075-210100-
...SAN LUIS VALLEY/SANGRE DE CRISTO MOUNTAINS...

CITY           SKY/WX    TMP DP  RH WIND       PRES   REMARKS
ALAMOSA        CLOUDY    60  33  36 SW17      30.21R
LA VETA PASS   CLOUDY    46  30  53 N3        30.38S
SAGUACHE       MOCLDY    55  36  47 NW7       30.24F
$$

COZ035-036-038>040-210100-
...NORTHERN COLORADO FRONT RANGE...

CITY           SKY/WX    TMP DP  RH WIND       PRES   REMARKS
DENVER INTL AP PTCLDY    67  34  29 S16       30.06S
DMNS CITY PARK   N/A     68  34  27 SE7       30.05S
AURORA         PTCLDY    66  34  30 S14G21    30.08S
FRONT RANGE AP NOT AVBL
ERIE MUNI ARPT PTCLDY    66  40  39 CALM      30.04R
BOULDER MUN AP MOCLDY    66  39  37 W3        30.05R
CENTENNIAL     PTCLDY    65  34  31 S18G29    30.08S
BROOMFIELD     NOT AVBL
FORT COLLINS   CLEAR     66  39  37 N3        30.04S
LONGMONT       CLEAR     66  43  42 CALM      30.06R
$$

COZ041-046-047-076>085-087-088-210100-
...PIKES PEAK/PALMER DIVIDE AND SOUTHERN FOOTHILLS...

CITY           SKY/WX    TMP DP  RH WIND       PRES   REMARKS
COLO. SPRINGS  PTCLDY    63  34  33 SE9       30.18S
A. F. ACADEMY  CLEAR     61  33  34 SE15      30.17S
ELLICOTT       CLEAR     61  35  37 S9        30.17S
FALCON         CLEAR     59  31  35 S8        30.22S
FORT CARSON    CLEAR     64  36  35 SE10      30.15F
LIMON          CLEAR     62  37  39 S14       30.13F
MONUMENT HILL  CLEAR     57  32  38 S16       30.18S
TRINIDAD       CLEAR     66  36  32 SE12      30.14S
$$

COZ042>045-048>051-090-091-210100-
...NORTHEAST COLORADO...

CITY           SKY/WX    TMP DP  RH WIND       PRES   REMARKS
GREELEY ARPT   CLEAR     72  36  26 SE9       30.03S
AKRON          CLEAR     68  35  29 S10       30.07F
BURLINGTON     CLEAR     65  39  38 S9        30.12S
WRAY           CLEAR     71  38  30 SE9       30.06S
STERLING       CLEAR     72  37  28 S9        30.02S
HOLYOKE        CLEAR     70  37  30 S8        30.05S
FORT MORGAN    CLEAR     69  31  24 S13       30.05S
$$

COZ086-089-092>099-210100-
...SOUTHEAST COLORADO...

CITY           SKY/WX    TMP DP  RH WIND       PRES   REMARKS
PUEBLO         CLEAR     71  38  29 SE12      30.09S
LA JUNTA       CLEAR     70  41  34 SE12      30.09F
LAMAR          CLEAR     68  45  43 SE8       30.08S
SPRINGFIELD      N/A     64  44  48 E9        30.13S
$$



USA.gov is the U.S. government's official web portal to all federal, state and local government web resources and services.